Waarnemingen

Advertentie
Mijn weer
J6-A, Nederland (6211): temperatuur & dauwpunt: 12.02.2019 01:00:00 - 18.02.2019 01:00:00 (CET)J6-A, Nederland (6211): windsnelheid & windstoten: 12.02.2019 01:00:00 - 18.02.2019 01:00:00 (CET)J6-A, Nederland (6211): windrichting: 12.02.2019 01:00:00 - 18.02.2019 01:00:00 (CET)J6-A, Nederland (6211): luchtdruk: 12.02.2019 01:00:00 - 18.02.2019 01:00:00 (CET)J6-A, Nederland (6211): zicht: 12.02.2019 01:00:00 - 18.02.2019 01:00:00 (CET)
Datum & Tijd tt [°C] td [°C] ff [km/u] ff [kn] fx [km/u] fx [kn] dd ppp [hPa] vv [km]
18.02.2019 01:00:00 8,1 6,7 46 25 47 25 ZZW 1015,5 10
18.02.2019 00:00:00 8,0 6,5 39 21 43 23 ZZW 1015,2 10
17.02.2019 23:00:00 8,3 6,3 44 24 43 23 ZZW 1015,2 10
17.02.2019 22:00:00 8,5 5,9 44 24 40 21 ZZW 1015,0 10
17.02.2019 21:00:00 7,7 5,6 35 19 32 18 ZZW 1014,8 10
17.02.2019 20:00:00 7,7 5,4 37 20 36 19 ZZW 1014,8 10
17.02.2019 19:00:00 8,0 5,1 41 22 40 21 Z 1014,5 10
17.02.2019 18:00:00 7,9 4,8 41 22 40 21 Z 1014,3 10
17.02.2019 17:00:00 8,3 4,8 44 24 43 23 Z 1014,2 10
17.02.2019 16:00:00 8,4 4,9 39 21 40 21 Z 1014,5 10
17.02.2019 15:00:00 8,4 5,0 41 22 40 21 ZZO 1014,7 10
17.02.2019 14:00:00 8,0 5,3 42 23 40 21 ZZO 1014,9 9
17.02.2019 13:00:00 7,8 5,5 41 22 40 21 ZZO 1016,0 8
17.02.2019 12:00:00 7,9 5,9 37 20 36 19 ZZO 1016,6 6
17.02.2019 11:00:00 7,7 5,9 37 20 36 19 ZZO 1016,8 5
17.02.2019 10:00:00 7,7 5,8 35 19 32 18 ZZO 1017,1 5
17.02.2019 09:00:00 7,6 5,9 31 17 32 18 ZZO 1017,5 5
17.02.2019 08:00:00 7,6 6,2 35 19 32 18 Z 1017,7 4,7
17.02.2019 07:00:00 7,6 6,5 35 19 40 21 Z 1017,6 5
17.02.2019 06:00:00 7,9 7,2 37 20 40 21 Z 1018,1 6
17.02.2019 05:00:00 7,5 7,1 34 18 32 18 Z 1018,7 5
17.02.2019 04:00:00 7,6 6,9 34 18 32 18 Z 1019,3 7
17.02.2019 03:00:00 8,5 7,2 37 20 47 25 ZZW 1019,9 10
17.02.2019 02:00:00 8,4 7,2 50 27 50 27 ZZW 1020,4 10
17.02.2019 01:00:00 8,3 7,2 41 22 40 21 ZZW 1021,0 10
17.02.2019 00:00:00 8,3 7,2 44 24 40 21 ZZW 1021,2 9
16.02.2019 23:00:00 8,4 7,2 42 23 40 21 ZZW 1021,3 9
16.02.2019 22:00:00 8,5 7,3 44 24 40 21 ZZW 1021,5 9
16.02.2019 21:00:00 8,4 7,3 42 23 40 21 ZZW 1021,2 8
16.02.2019 20:00:00 8,3 7,2 41 22 40 21 ZZW 1021,2 8
16.02.2019 19:00:00 8,2 7,2 39 21 36 19 ZZW 1021,2 7
16.02.2019 18:00:00 8,3 7,0 35 19 40 21 ZZW 1021,0 8
16.02.2019 17:00:00 8,2 6,9 46 25 43 23 ZZW 1021,1 6
16.02.2019 16:00:00 8,0 6,6 42 23 40 21 ZZW 1021,6 5
16.02.2019 15:00:00 7,9 6,6 37 20 40 21 ZZW 1021,5 5
16.02.2019 14:00:00 7,9 6,4 39 21 40 21 ZW 1021,7 5
16.02.2019 13:00:00 7,9 6,4 41 22 43 23 ZW 1021,9 6
16.02.2019 12:00:00 7,9 6,2 48 26 47 25 ZZW 1021,8 7
16.02.2019 11:00:00 7,7 5,9 42 23 47 25 ZZW 1021,3 7
16.02.2019 10:00:00 7,6 5,7 39 21 40 21 ZZW 1021,0 8
16.02.2019 09:00:00 7,5 5,3 35 19 40 21 ZW 1020,9 9
16.02.2019 08:00:00 7,6 4,9 39 21 36 19 ZW 1020,7 10
16.02.2019 07:00:00 7,4 4,7 39 21 40 21 ZZW 1020,5 10
16.02.2019 06:00:00 7,5 4,4 46 25 47 25 ZZW 1020,2 10
16.02.2019 05:00:00 7,6 4,2 35 19 36 19 ZZW 1020,5 10
16.02.2019 04:00:00 7,7 4,3 37 20 40 21 ZW 1020,6 10
16.02.2019 03:00:00 7,6 4,7 35 19 36 19 ZZW 1021,1 10
16.02.2019 02:00:00 7,4 4,9 37 20 36 19 ZZW 1021,7 9
16.02.2019 01:00:00 7,6 4,8 37 20 40 21 ZZW 1022,3 9
16.02.2019 00:00:00 7,8 4,7 39 21 40 21 ZZW 1022,5 9
15.02.2019 23:00:00 7,7 4,7 39 21 36 19 ZZW 1023,0 9
15.02.2019 22:00:00 7,3 5,3 37 20 36 19 Z 1023,4 8
15.02.2019 21:00:00 7,2 5,4 35 19 36 19 Z 1024,0 9
15.02.2019 20:00:00 7,4 5,1 37 20 36 19 Z 1024,3 10
15.02.2019 19:00:00 7,3 5,2 34 18 32 18 Z 1025,0 9
15.02.2019 18:00:00 7,2 5,4 31 17 29 16 Z 1025,1 8
15.02.2019 17:00:00 7,6 5,4 28 15 29 16 Z 1025,3 7
15.02.2019 16:00:00 7,8 5,4 28 15 29 16 Z 1025,8 7
15.02.2019 15:00:00 7,8 5,6 28 15 29 16 Z 1026,6 7
15.02.2019 14:00:00 7,5 5,7 28 15 29 16 ZZW 1027,3 7
15.02.2019 13:00:00 7,2 5,6 29 16 29 16 Z 1028,0 7
15.02.2019 12:00:00 7,5 5,6 34 18 32 18 Z 1028,4 9
15.02.2019 11:00:00 7,5 5,6 34 18 32 18 Z 1028,8 10
15.02.2019 10:00:00 7,5 5,3 31 17 29 16 Z 1028,9 10
15.02.2019 09:00:00 7,4 5,2 31 17 29 16 Z 1029,1 10
15.02.2019 08:00:00 7,6 4,9 31 17 32 18 Z 1029,0 10
15.02.2019 07:00:00 7,6 4,8 31 17 29 16 Z 1029,3 10
15.02.2019 06:00:00 7,3 5,1 28 15 25 14 Z 1029,5 10
15.02.2019 05:00:00 7,3 5,1 28 15 29 16 Z 1029,7 10
15.02.2019 04:00:00 7,3 5,2 26 14 32 18 Z 1030,1 10
15.02.2019 03:00:00 7,6 5,1 31 17 32 18 Z 1030,6 10
15.02.2019 02:00:00 7,8 4,8 37 20 36 19 Z 1031,2 10
15.02.2019 01:00:00 7,4 5,1 34 18 32 18 Z 1031,6 10
15.02.2019 00:00:00 7,2 4,9 29 16 29 16 Z 1031,6 10
14.02.2019 23:00:00 7,2 5,0 31 17 29 16 ZZW 1031,6 10
14.02.2019 22:00:00 7,2 4,9 29 16 29 16 Z 1031,7 10
14.02.2019 21:00:00 6,9 5,3 29 16 29 16 Z 1031,8 10
14.02.2019 20:00:00 6,7 5,9 26 14 29 16 Z 1032,1 7
14.02.2019 19:00:00 6,9 5,8 31 17 29 16 ZZW 1032,3 10
14.02.2019 18:00:00 6,9 5,5 26 14 29 16 Z 1032,2 10
14.02.2019 17:00:00 7,1 5,1 26 14 25 14 ZZW 1032,2 10
14.02.2019 16:00:00 7,1 5,2 22 12 25 14 ZZW 1032,6 10
14.02.2019 15:00:00 6,9 5,1 21 11 22 12 ZW 1032,7 8
14.02.2019 14:00:00 6,8 4,9 26 14 29 16 ZZW 1033,1 9
14.02.2019 13:00:00 6,6 4,7 28 15 25 14 ZZW 1033,5 10
14.02.2019 12:00:00 6,5 4,7 24 13 25 14 ZZW 1033,5 10
14.02.2019 11:00:00 6,6 4,8 28 15 29 16 ZW 1033,3 10
14.02.2019 10:00:00 6,7 4,7 31 17 36 19 ZW 1032,7 10
14.02.2019 09:00:00 6,8 4,5 35 19 40 21 ZW 1032,0 10
14.02.2019 08:00:00 6,7 4,8 34 18 36 19 ZW 1031,8 10
14.02.2019 07:00:00 6,7 4,9 34 18 36 19 ZW 1031,9 10
14.02.2019 06:00:00 6,6 4,7 37 20 36 19 ZW 1031,6 10
14.02.2019 05:00:00 6,8 4,8 29 16 36 19 ZW 1031,7 10
14.02.2019 04:00:00 6,7 5,1 41 22 43 23 ZZW 1031,1 10
14.02.2019 03:00:00 6,8 5,2 48 26 47 25 ZZW 1031,1 10
14.02.2019 02:00:00 7,1 5,4 34 18 43 23 ZZW 1031,3 10
14.02.2019 01:00:00 7,2 5,6 29 16 40 21 ZZW 1031,6 10
14.02.2019 00:00:00 7,2 5,8 46 25 43 23 ZZW 1030,9 10
13.02.2019 23:00:00 7,4 6,1 42 23 47 25 ZW 1031,0 10
13.02.2019 22:00:00 7,3 6,2 41 22 47 25 ZW 1031,2 10
13.02.2019 21:00:00 7,4 6,2 48 26 47 25 ZZW 1031,1 10
13.02.2019 20:00:00 7,1 6,0 44 24 43 23 ZZW 1030,8 10
13.02.2019 19:00:00 7,3 5,9 41 22 47 25 ZZW 1030,8 10
13.02.2019 18:00:00 7,0 5,8 37 20 36 19 ZZW 1030,6 10
13.02.2019 17:00:00 7,1 5,8 39 21 43 23 ZZW 1030,4 10
13.02.2019 16:00:00 7,7 5,7 44 24 43 23 ZW 1030,6 10
13.02.2019 15:00:00 7,8 5,7 46 25 47 25 ZW 1031,0 10
13.02.2019 14:00:00 7,2 6,1 42 23 43 23 ZW 1031,2 8
13.02.2019 13:00:00 7,1 6,0 39 21 40 21 ZW 1031,4 10
13.02.2019 12:00:00 7,1 6,0 41 22 40 21 ZW 1031,7 10
13.02.2019 11:00:00 7,1 6,1 39 21 43 23 ZW 1031,6 10
13.02.2019 10:00:00 7,4 6,3 39 21 43 23 ZW 1031,4 10
13.02.2019 09:00:00 7,3 6,2 39 21 40 21 ZW 1030,9 10
13.02.2019 08:00:00 7,2 6,3 34 18 36 19 ZW 1030,8 10
13.02.2019 07:00:00 7,3 6,3 34 18 40 21 ZW 1030,5 10
13.02.2019 06:00:00 7,4 6,4 37 20 36 19 ZW 1030,3 10
13.02.2019 05:00:00 7,2 6,4 29 16 36 19 ZW 1030,5 10
13.02.2019 04:00:00 7,7 6,5 37 20 43 23 WZW 1030,3 -
13.02.2019 03:00:00 7,9 6,4 44 24 43 23 WZW 1030,2 10
13.02.2019 02:00:00 7,9 6,4 41 22 43 23 WZW 1030,2 10
13.02.2019 01:00:00 7,7 6,2 50 27 50 27 ZW 1030,2 10
13.02.2019 00:00:00 7,8 6,1 44 24 43 23 ZW 1030,5 10
12.02.2019 23:00:00 7,6 6,0 48 26 50 27 ZW 1030,4 10
12.02.2019 22:00:00 7,8 5,8 52 28 54 29 ZW 1029,9 10
12.02.2019 21:00:00 7,6 5,8 55 30 54 29 ZW 1029,9 10
12.02.2019 20:00:00 7,5 5,6 48 26 47 25 ZW 1029,9 10
12.02.2019 19:00:00 7,4 5,5 42 23 43 23 ZW 1029,3 10
12.02.2019 18:00:00 7,0 5,3 42 23 43 23 ZW 1029,2 10
12.02.2019 17:00:00 6,7 5,1 41 22 40 21 ZW 1029,3 10
12.02.2019 16:00:00 6,3 4,7 35 19 40 21 ZZW 1029,7 10
12.02.2019 15:00:00 6,2 4,5 41 22 40 21 ZW 1029,7 10
12.02.2019 14:00:00 6,3 4,4 28 15 36 19 ZW 1029,8 10
12.02.2019 13:00:00 6,2 4,2 35 19 36 19 ZW 1029,9 10
12.02.2019 12:00:00 6,2 4,3 37 20 40 21 ZW 1030,0 10
12.02.2019 11:00:00 6,3 4,3 34 18 36 19 ZW 1030,0 10
12.02.2019 10:00:00 6,3 4,5 34 18 32 18 ZW 1029,9 10
12.02.2019 09:00:00 6,5 4,6 31 17 32 18 ZW 1029,9 10
12.02.2019 08:00:00 6,5 4,3 31 17 32 18 ZW 1029,5 10
12.02.2019 07:00:00 6,5 4,2 35 19 36 19 WZW 1029,4 10
12.02.2019 06:00:00 6,6 4,1 35 19 36 19 ZW 1029,6 10
12.02.2019 05:00:00 6,5 4,1 34 18 36 19 ZW 1029,7 10
12.02.2019 04:00:00 6,4 3,7 34 18 32 18 ZW 1030,0 10
12.02.2019 03:00:00 6,4 3,5 29 16 32 18 ZW 1030,4 10
12.02.2019 02:00:00 6,4 3,2 26 14 25 14 WZW 1030,4 10
12.02.2019 01:00:00 6,3 2,3 22 12 22 12 W 1030,4 10

tt = temperatuur
td = dauwpunt
ff = windsnelheid
fx = windstoten
dd = windrichting
ppp = luchtdruk
vv = zicht

Weerstations in de omgeving